This is the latest recevied weather packets stored in our database for station/object N4CRH-13. If no packets are shown the sender has not sent any weather packets the latest 10 day(s).
| Time | Temp. | Humidity | Pressure | Rain* | Wind** | Luminosity | Snow |
|---|---|---|---|---|---|---|---|
| 1777919081 | 18.89° C | 22% | 1287.4 hPa | 0 mm | - | 925 W/m² | - |
| 1777918779 | 18.89° C | 24% | 1287.9 hPa | 0 mm | - | 921 W/m² | - |
| 1777918475 | 18.33° C | 23% | 1288 hPa | 0 mm | - | 763 W/m² | - |
| 1777918174 | 18.33° C | 23% | 1287.9 hPa | 0 mm | - | 660 W/m² | - |
| 1777917873 | 18.33° C | 23% | 1288 hPa | 0 mm | - | 641 W/m² | - |
| 1777917570 | 17.78° C | 25% | 1288 hPa | 0 mm | - | 818 W/m² | - |
| 1777917267 | 17.78° C | 24% | 1288.1 hPa | 0 mm | - | 439 W/m² | - |
| 1777916965 | 18.33° C | 25% | 1288.1 hPa | 0 mm | - | 308 W/m² | - |
| 1777916662 | 17.78° C | 25% | 1288.3 hPa | 0 mm | - | 527 W/m² | - |
| 1777916360 | 18.33° C | 29% | 1288.6 hPa | 0 mm | - | 663 W/m² | - |
| 1777916056 | 17.22° C | 25% | 1288.7 hPa | 0 mm | - | 377 W/m² | - |
| 1777915754 | 17.22° C | 27% | 1289 hPa | 0 mm | - | 319 W/m² | - |
| 1777915449 | 17.22° C | 28% | 1288.9 hPa | 0 mm | - | 314 W/m² | - |
| 1777915145 | 17.22° C | 27% | 1289.1 hPa | 0 mm | - | 345 W/m² | - |
| 1777914843 | 17.22° C | 28% | 1289 hPa | 0 mm | - | 309 W/m² | - |
| 1777914540 | 17.22° C | 26% | 1288.9 hPa | 0 mm | - | 320 W/m² | - |
| 1777914236 | 16.67° C | 28% | 1289.1 hPa | 0 mm | - | 321 W/m² | - |
| 1777913933 | 16.67° C | 27% | 1289.2 hPa | 0 mm | - | 294 W/m² | - |
| 1777913629 | 16.11° C | 31% | 1289.2 hPa | 0 mm | - | 291 W/m² | - |
| 1777913326 | 16.11° C | 30% | 1289.2 hPa | 0 mm | - | 245 W/m² | - |
| 1777913023 | 16.67° C | 32% | 1289.4 hPa | 0 mm | - | 247 W/m² | - |
| 1777912719 | 16.67° C | 32% | 1289.2 hPa | 0 mm | - | 450 W/m² | - |
| 1777912415 | 16.67° C | 30% | 1289.5 hPa | 0 mm | - | 487 W/m² | - |
| 1777912111 | 16.67° C | 31% | 1289.4 hPa | 0 mm | - | 581 W/m² | - |
| 1777911807 | 17.22° C | 30% | 1289.6 hPa | 0 mm | - | 637 W/m² | - |
* Rain latest hour (hover to see other rain measurements)
** Current wind speed in m/s (hover to see current wind gust speed)